星链-33902(STARLINK-33902)

导读

STARLINK-33902是美国SpaceX星链星座的卫星,于2025年10月8日发射。作为星链星座中低轨卫星互联网组网的一员,它依托近地轨道部署,承载全球覆盖高速互联网服务的任务,为偏远地区、海上及航空场景提供低成本网络接入,是SpaceX推进星链规模组网、完善全球卫星互联网布局的组成部分。

Basic Information
目录编号:
65920
目录名称:
STARLINK-33902
国际标识:
2025-225L
轨道中心:
EARTH
卫星名称:
星链-33902
卫星全名:
星链-33902(STARLINK-33902)
卫星状态:
在轨 (已飞行331 天)
发射日期:
2025-10-08 UTC
国别 :
美国 (US)
星等 :
--
Orbit Information
数据来源 国际轨道数据
星历时间: 2026-09-03T12:48:23+0800
23小时前
查看轨道信息
半长轴: 6840.821km
偏心率: 0.0001287
轨道倾角: 53.160°
近地点辐角 94.612°
升交点赤经 58.474°
平近点角 265.503°
近地点: 461.803km
远地点: 463.565km
周期: 93.847分钟
每日圈数: 15.344066
Detailed Information
固有亮度:
5
最大亮度:
2.5
卫星平台:
Starlink V1.0
覆盖范围:
全球
运营商:
太空探索技术公司
运营商所在国:
美国
制造商(研发单位):
太空探索技术公司
制造商所在国:
美国
使用方式:
暂无
Satellite Introduction
Starlink 计划是 SpaceX 推出的全球卫星互联网项目,通过发射低轨道卫星,为全球尤其是偏远地区提供高速、低延迟的互联网服务。自 2019 年起,Starlink 已部署数千颗卫星,旨在缩小全球数字鸿沟,推动互联网普及。该项目还为军事、航空等行业提供通信支持,带来广泛经济效益。
2D Orbit Map
3D Orbit Map
Orbit Altitude Analysis Chart
Orbit Inclination Analysis Chart
Orbit Comprehensive Analysis Chart
View Comprehensive Chart
Conjunction Data List
Event ID Objects TCA Miss Dist (km) Collision Risk Probability Collision Risk Index (CRI) Action
CDM_260904-070806-454006-592022
ARCSTONE (64540)
2026-09-04T
07:08:20+0000
1.429 km
极远距离
5.156031E-6 低风险 0.49
CDM_260904-165105-420406-592021
2026-09-04T
16:51:53+0000
2.687 km
极远距离
1.364061E-6 低风险 0.38
CDM_260905-023104-976606-592021
2026-09-05T
02:31:05+0000
2.824 km
极远距离
3.564213E-7 极低风险 0.26